TimeCET,TemperatureF,Dew PointF,Humidity,Sea Level PressureIn,VisibilityMPH,Wind Direction,Wind SpeedMPH,Gust SpeedMPH,PrecipitationIn,Events,Conditions,WindDirDegrees,DateUTC
12:45 AM,42.8,42.8,100,30.12,0.6,ENE,3.5,-,N/A,Fog,Fog,60,2012-11-25 23:45:00
1:00 AM,43,42,95,30.15,1,ENE,4.5,,,Fog,Partial Fog,60,2012-11-26 00:00:00
1:45 AM,42.8,42.8,100,30.12,0.6,East,3.5,-,N/A,Fog,Fog,80,2012-11-26 00:45:00
2:45 AM,42.8,42.8,100,30.12,0.6,ESE,3.5,-,N/A,Fog,Fog,120,2012-11-26 01:45:00
3:45 AM,42.8,42.8,100,30.12,0.2,SE,2.3,-,N/A,Fog,Fog,130,2012-11-26 02:45:00
4:45 AM,42.8,42.8,100,30.09,0.6,East,1.2,-,N/A,Fog,Fog,90,2012-11-26 03:45:00
5:15 AM,42.8,42.8,100,30.09,0.6,Calm,Calm,-,N/A,Fog,Fog,0,2012-11-26 04:15:00
5:45 AM,42.8,42.8,100,30.09,0.6,ENE,2.3,-,N/A,Fog,Fog,70,2012-11-26 04:45:00
6:00 AM,-9999,-9999,N/A,-9999,0.9,Variable,3.5,-,N/A,,Scattered Clouds,0,2012-11-26 05:00:00
6:15 AM,42.8,42.8,100,30.09,0.6,ESE,1.2,-,N/A,Fog,Fog,120,2012-11-26 05:15:00
6:20 AM,42.8,42.8,100,30.12,0.9,ESE,2.3,-,N/A,,Overcast,110,2012-11-26 05:20:00
6:33 AM,42.8,42.8,100,30.12,1.9,ESE,1.2,-,N/A,,Mostly Cloudy,120,2012-11-26 05:33:00
6:45 AM,42.8,42.8,100,30.09,1.9,ESE,1.2,-,N/A,,Mostly Cloudy,120,2012-11-26 05:45:00
7:00 AM,43,43,99,30.12,2,ESE,2.2,,,Fog,Light Fog,120,2012-11-26 06:00:00
7:15 AM,42.8,42.8,100,30.09,0.7,ESE,3.5,-,N/A,,Mostly Cloudy,110,2012-11-26 06:15:00
7:45 AM,42.8,42.8,100,30.12,0.7,East,2.3,-,N/A,,Mostly Cloudy,100,2012-11-26 06:45:00
8:15 AM,42.8,42.8,100,30.09,0.7,East,3.5,-,N/A,,Mostly Cloudy,100,2012-11-26 07:15:00
8:45 AM,44.6,44.6,100,30.09,0.9,East,3.5,-,N/A,,Mostly Cloudy,90,2012-11-26 07:45:00
9:00 AM,-9999,-9999,N/A,-9999,2.2,Variable,3.5,-,N/A,,Overcast,0,2012-11-26 08:00:00
9:15 AM,44.6,44.6,100,30.09,0.9,East,3.5,-,N/A,,Mostly Cloudy,80,2012-11-26 08:15:00
9:45 AM,46.4,46.4,100,30.09,1.2,East,4.6,-,N/A,,Mostly Cloudy,90,2012-11-26 08:45:00
10:15 AM,48.2,46.4,93,30.09,1.9,East,3.5,-,N/A,,Mostly Cloudy,100,2012-11-26 09:15:00
10:45 AM,50.0,48.2,94,30.09,2.5,ESE,3.5,-,N/A,,Mostly Cloudy,110,2012-11-26 09:45:00
11:15 AM,53.6,48.2,82,30.06,3.7,ESE,4.6,-,N/A,,Mostly Cloudy,120,2012-11-26 10:15:00
11:45 AM,55.4,50.0,82,30.06,5.0,ESE,3.5,-,N/A,,Mostly Cloudy,120,2012-11-26 10:45:00
12:00 PM,-9999,-9999,N/A,-9999,2.5,East,4.6,-,N/A,,Mist,100,2012-11-26 11:00:00
12:15 PM,59.0,50.0,72,30.04,-9999.0,SSE,3.5,-,N/A,,Clear,160,2012-11-26 11:15:00
12:45 PM,59.0,48.2,67,30.04,-9999.0,SSW,4.6,-,N/A,,Clear,200,2012-11-26 11:45:00
1:00 PM,59,48,58,30.04,6,SSW,4.5,,,,Partly Cloudy,200,2012-11-26 12:00:00
1:15 PM,59.0,48.2,67,30.04,-9999.0,South,4.6,-,N/A,,Clear,170,2012-11-26 12:15:00
1:45 PM,57.2,48.2,72,30.04,-9999.0,South,5.8,-,N/A,,Clear,170,2012-11-26 12:45:00
2:15 PM,57.2,50.0,77,30.01,-9999.0,SSE,4.6,-,N/A,,Clear,160,2012-11-26 13:15:00
2:45 PM,57.2,50.0,77,30.01,-9999.0,SSE,6.9,-,N/A,,Clear,150,2012-11-26 13:45:00
3:00 PM,-9999,-9999,N/A,-9999,2.2,SSE,5.8,-,N/A,Fog,Patches of Fog,160,2012-11-26 14:00:00
3:15 PM,57.2,50.0,77,30.01,-9999.0,SE,6.9,-,N/A,,Clear,130,2012-11-26 14:15:00
3:45 PM,57.2,50.0,77,30.01,-9999.0,SE,5.8,-,N/A,,Clear,140,2012-11-26 14:45:00
4:15 PM,53.6,48.2,82,30.01,-9999.0,ESE,4.6,-,N/A,,Clear,110,2012-11-26 15:15:00
4:45 PM,51.8,46.4,82,30.01,6.2,SE,5.8,-,N/A,,Scattered Clouds,140,2012-11-26 15:45:00
5:15 PM,51.8,46.4,82,30.01,-9999.0,SSE,5.8,-,N/A,,Clear,150,2012-11-26 16:15:00
5:45 PM,53.6,46.4,77,30.01,-9999.0,South,4.6,-,N/A,,Clear,180,2012-11-26 16:45:00
6:15 PM,51.8,46.4,82,29.98,-9999.0,SSW,8.1,-,N/A,,Clear,200,2012-11-26 17:15:00
6:45 PM,51.8,44.6,76,29.98,-9999.0,SSW,8.1,-,N/A,,Clear,200,2012-11-26 17:45:00
7:00 PM,52,45,70,30.00,6,SSW,8.9,,,,Partly Cloudy,200,2012-11-26 18:00:00
7:15 PM,50.0,44.6,82,29.98,-9999.0,SSW,6.9,-,N/A,,Clear,200,2012-11-26 18:15:00
7:45 PM,50.0,44.6,82,29.98,-9999.0,SSW,6.9,-,N/A,,Clear,200,2012-11-26 18:45:00
8:15 PM,50.0,44.6,82,29.98,-9999.0,SSW,8.1,-,N/A,,Clear,200,2012-11-26 19:15:00
8:45 PM,48.2,42.8,82,29.98,-9999.0,SSW,8.1,-,N/A,,Clear,210,2012-11-26 19:45:00
9:45 PM,48.2,42.8,82,29.98,-9999.0,SSW,5.8,-,N/A,,Clear,200,2012-11-26 20:45:00
10:45 PM,48.2,42.8,82,29.98,-9999.0,SSW,5.8,-,N/A,,Clear,210,2012-11-26 21:45:00
11:45 PM,46.4,42.8,87,29.98,-9999.0,SSW,5.8,-,N/A,,Clear,210,2012-11-26 22:45:00